EW2997 Weather Reports


time (UTC)temp
C
wind
direction
speed
KPH
gust
KPH
rain 1hr
cm
rain 24hr
cm
rain mn
cm
humidity
%
barometer
mb
20260507175538 17 59 3.2 3.2 0.00 0.00 0.00 39 1012.9
20260507172538 17 234 3.2 3.2 0.00 0.00 0.00 39 1013.5
20260507165535 16 24 3.2 3.2 0.00 0.00 0.00 46 1013.9
20260507162532 16 31 3.2 3.2 0.00 0.00 0.00 41 1013.9
20260507155528 15 312 6.4 6.4 0.00 0.00 0.00 45 1014.9
20260507152525 15 29 4.8 4.8 0.00 0.00 0.00 47 1014.9
20260507145521 13 300 3.2 3.2 0.00 0.00 0.00 50 1015.2
20260507142520 12 198 3.2 3.2 0.00 0.00 0.00 58 1016.0
20260507135520 12 352 3.2 3.2 0.00 0.00 0.00 52 1016.7
20260507132517 11 264 3.2 3.2 0.00 0.00 0.00 56 1016.7
20260507125518 10 328 4.8 4.8 0.00 0.00 0.00 59 1016.7
20260507122515 10 108 0.0 0.0 0.00 0.00 0.00 63 1016.7
20260507115511 10 354 0.0 0.0 0.00 0.00 0.00 63 1016.7
20260507112509 9 174 0.0 0.0 0.00 0.00 0.00 64 1016.3
20260507105506 9 120 3.2 3.2 0.00 0.00 0.00 66 1016.0
20260507102504 8 72 0.0 0.0 0.00 0.00 0.00 71 1015.6
20260507095502 9 96 0.0 0.0 0.00 0.00 0.00 63 1015.6
20260507092502 9 72 0.0 0.0 0.00 0.00 0.00 65 1015.2
20260507085459 10 11 0.0 0.0 0.00 0.00 0.00 62 1014.9
20260507082456 10 30 3.2 3.2 0.00 0.00 0.00 59 1014.9
20260507075452 10 193 0.0 0.0 0.00 0.00 0.00 66 1014.9
20260507072451 10 83 4.8 4.8 0.00 0.00 0.00 69 1015.2
20260507065451 10 132 0.0 0.0 0.00 0.00 0.00 73 1015.2
20260507062446 10 24 0.0 0.0 0.00 0.00 0.00 76 1015.2
20260507055445 11 30 3.2 3.2 0.00 0.00 0.00 80 1015.2
20260507052441 11 53 6.4 6.4 0.00 0.00 0.00 79 1014.9
20260507045438 11 0 3.2 3.2 0.00 0.00 0.00 81 1014.9
20260507042435 11 18 3.2 3.2 0.00 0.00 0.00 81 1014.9
20260507035430 11 349 3.2 3.2 0.00 0.58 0.58 80 1015.6
20260507032425 12 10 3.2 3.2 0.00 0.58 0.58 78 1014.9
20260507025423 12 6 3.2 3.2 0.00 0.58 0.58 81 1015.2
20260507022423 12 9 3.2 3.2 0.00 0.58 0.58 79 1014.5
20260507015421 12 283 3.2 3.2 0.00 0.58 0.58 82 1014.9
20260507012419 12 10 4.8 4.8 0.00 0.58 0.58 83 1014.9
20260507005415 13 25 3.2 3.2 0.00 0.58 0.58 84 1014.9
20260507002410 13 347 3.2 3.2 0.00 0.58 0.58 83 1014.5
20260506235408 13 353 6.4 6.4 0.00 0.58 0.58 82 1013.9
20260506232406 14 354 6.4 6.4 0.00 0.58 0.58 81 1012.9
20260506225404 15 0 3.2 3.2 0.00 0.58 0.58 80 1012.9
20260506222401 15 337 4.8 4.8 0.00 0.58 0.58 80 1012.9
20260506215359 16 324 4.8 4.8 0.00 0.58 0.58 79 1012.5
20260506212358 16 328 8.0 8.0 0.00 0.58 0.58 81 1011.7
20260506205355 17 333 3.2 3.2 0.00 0.58 0.58 81 1011.4
20260506202353 17 323 3.2 3.2 0.00 0.58 0.58 88 1011.1
20260506195349 17 232 3.2 3.2 0.00 0.58 0.58 89 1010.7
20260506192347 17 234 1.6 1.6 0.00 0.58 0.58 91 1010.7
20260506185345 16 168 3.2 3.2 0.00 0.58 0.58 94 1011.1
20260506182344 16 192 3.2 3.2 0.00 0.58 0.58 94 1011.4